TimeCDT,TemperatureF,Dew PointF,Humidity,Sea Level PressureIn,VisibilityMPH,Wind Direction,Wind SpeedMPH,Gust SpeedMPH,PrecipitationIn,Events,Conditions,WindDirDegrees,DateUTC
12:53 AM,80.1,75.0,85,29.92,10.0,Calm,Calm,-,N/A,,Mostly Cloudy,0,2013-07-11 05:53:00
1:53 AM,79.0,75.0,88,29.92,10.0,Calm,Calm,-,N/A,,Scattered Clouds,0,2013-07-11 06:53:00
2:53 AM,79.0,75.0,88,29.93,10.0,Calm,Calm,-,N/A,,Partly Cloudy,0,2013-07-11 07:53:00
3:34 AM,78.8,75.2,89,29.95,10.0,Calm,Calm,-,N/A,,Mostly Cloudy,0,2013-07-11 08:34:00
3:41 AM,78.8,75.2,89,29.95,10.0,Calm,Calm,-,N/A,,Scattered Clouds,0,2013-07-11 08:41:00
3:53 AM,78.1,73.9,87,29.93,10.0,North,3.5,-,N/A,,Scattered Clouds,10,2013-07-11 08:53:00
4:53 AM,79.0,73.0,82,29.93,10.0,NNE,4.6,-,N/A,,Mostly Cloudy,30,2013-07-11 09:53:00
5:53 AM,78.1,71.1,79,29.95,10.0,NNE,19.6,31.1,N/A,,Overcast,30,2013-07-11 10:53:00
6:53 AM,77.0,69.1,76,29.95,10.0,NNE,8.1,-,N/A,,Clear,20,2013-07-11 11:53:00
7:53 AM,79.0,69.1,72,29.96,10.0,NNE,8.1,-,N/A,,Clear,30,2013-07-11 12:53:00
8:53 AM,82.0,69.1,65,29.97,10.0,NNE,6.9,-,N/A,,Clear,30,2013-07-11 13:53:00
9:53 AM,84.0,70.0,63,29.96,10.0,NE,10.4,-,N/A,,Clear,40,2013-07-11 14:53:00
10:53 AM,84.9,69.1,59,29.98,10.0,NNE,9.2,-,N/A,,Clear,30,2013-07-11 15:53:00
11:53 AM,87.1,68.0,53,29.98,10.0,NNE,10.4,16.1,N/A,,Mostly Cloudy,30,2013-07-11 16:53:00
12:53 PM,87.1,66.9,51,29.99,10.0,NE,11.5,-,N/A,,Mostly Cloudy,40,2013-07-11 17:53:00
1:53 PM,89.1,66.9,48,29.98,10.0,NNE,6.9,19.6,N/A,,Partly Cloudy,30,2013-07-11 18:53:00
2:53 PM,88.0,64.9,46,29.97,10.0,NE,12.7,19.6,N/A,,Clear,40,2013-07-11 19:53:00
3:53 PM,89.1,64.9,45,29.97,10.0,NNE,10.4,-,N/A,,Clear,30,2013-07-11 20:53:00
4:53 PM,87.1,62.1,43,29.96,10.0,NE,13.8,-,N/A,,Clear,40,2013-07-11 21:53:00
5:53 PM,86.0,62.1,44,29.96,10.0,NE,13.8,-,N/A,,Clear,40,2013-07-11 22:53:00
6:53 PM,84.0,61.0,46,29.95,10.0,NNE,12.7,-,N/A,,Clear,30,2013-07-11 23:53:00
7:53 PM,81.0,61.0,50,29.95,10.0,NNE,10.4,-,N/A,,Clear,30,2013-07-12 00:53:00
8:53 PM,75.9,63.0,64,29.96,10.0,North,4.6,-,N/A,,Clear,10,2013-07-12 01:53:00
9:53 PM,73.9,63.0,68,29.99,10.0,Calm,Calm,-,N/A,,Clear,0,2013-07-12 02:53:00
10:53 PM,71.1,63.0,75,30.01,10.0,North,3.5,-,N/A,,Clear,350,2013-07-12 03:53:00
11:53 PM,71.1,60.1,68,30.01,10.0,NNE,3.5,-,N/A,,Clear,20,2013-07-12 04:53:00